Date,Time,Wetness (Wet Dry or Ice),Wind Speed (m/s),Temperature (C),Humidity (%),Pressure (mb),Radiation (W/m^2)
2024-01-07,06:35:00,DRY,1.10,7.50,63.0,774.00,0.0
2024-01-07,06:40:00,DRY,0.63,7.73,63.0,774.00,0.0
2024-01-07,06:45:00,DRY,0.70,7.40,70.0,774.00,0.0
2024-01-07,06:50:00,DRY,0.93,7.10,75.0,774.00,0.0
2024-01-07,06:55:00,DRY,1.20,7.10,79.5,774.00,0.0
2024-01-07,07:00:00,DRY,1.37,7.13,78.3,774.00,0.0
2024-01-07,07:05:00,DRY,1.00,7.10,80.0,774.00,0.0
2024-01-07,07:10:00,DRY,1.57,7.00,81.3,774.00,0.0
2024-01-07,07:15:00,DRY,1.35,7.05,79.5,774.00,0.0
2024-01-07,07:20:00,DRY,1.67,6.93,81.7,774.00,0.0
2024-01-07,07:25:00,DRY,1.05,6.75,81.5,774.00,0.0
2024-01-07,07:30:00,DRY,0.97,6.83,82.7,774.00,0.0
2024-01-07,07:35:00,DRY,1.00,6.95,82.0,774.00,0.0
2024-01-07,07:40:00,DRY,1.17,6.80,83.7,774.00,0.0
2024-01-07,07:45:00,DRY,0.90,6.80,84.0,774.00,0.0
2024-01-07,07:50:00,DRY,0.93,6.90,84.3,774.00,0.0
2024-01-07,07:55:00,DRY,0.70,7.05,84.0,774.50,0.0
2024-01-07,08:00:00,DRY,1.07,7.10,83.3,774.33,0.0
2024-01-07,08:05:00,DRY,0.45,7.00,83.5,774.50,0.0
2024-01-07,08:10:00,DRY,0.67,7.03,83.7,775.00,1.0
2024-01-07,08:15:00,DRY,0.85,7.15,84.0,775.00,4.0
2024-01-07,08:20:00,DRY,0.80,7.30,83.0,775.00,6.7
2024-01-07,08:25:00,DRY,0.65,7.30,83.0,775.00,9.5
2024-01-07,08:30:00,DRY,0.63,7.20,82.7,775.00,11.7
2024-01-07,08:35:00,DRY,0.85,7.10,82.5,775.00,14.5
2024-01-07,08:40:00,DRY,0.90,7.27,82.3,775.00,18.3
2024-01-07,08:45:00,DRY,1.00,7.30,82.0,775.00,22.0
2024-01-07,08:50:00,DRY,1.37,7.40,81.0,775.00,127.7
2024-01-07,08:55:00,DRY,1.35,7.55,80.5,775.00,153.0
2024-01-07,09:00:00,DRY,0.87,7.93,79.3,775.00,170.7
2024-01-07,09:05:00,DRY,1.15,8.05,78.5,775.00,188.0
2024-01-07,09:10:00,DRY,0.83,8.00,79.0,775.00,205.7
2024-01-07,09:15:00,DRY,0.50,8.00,79.0,775.00,223.5
2024-01-07,09:20:00,DRY,0.63,8.13,77.7,775.00,240.0
2024-01-07,09:25:00,DRY,1.25,8.35,75.5,775.00,259.0
2024-01-07,09:30:00,DRY,1.87,8.50,74.7,775.00,278.3
2024-01-07,09:35:00,DRY,1.80,8.50,76.0,775.00,296.5
2024-01-07,09:40:00,DRY,1.60,8.50,76.0,775.00,313.7
2024-01-07,09:45:00,DRY,1.40,8.40,76.0,775.00,330.5
2024-01-07,09:50:00,DRY,0.93,8.30,76.7,775.00,347.3
2024-01-07,09:55:00,DRY,1.20,8.30,77.0,775.00,363.5
2024-01-07,10:00:00,DRY,0.90,8.50,76.7,775.67,379.0
2024-01-07,10:05:00,DRY,1.00,8.60,76.0,776.00,394.5
2024-01-07,10:10:00,DRY,1.33,8.80,75.3,776.00,411.7
2024-01-07,10:15:00,DRY,1.10,8.80,75.5,776.00,427.0
2024-01-07,10:20:00,DRY,1.10,8.90,75.7,776.00,441.0
2024-01-07,10:25:00,DRY,0.95,8.95,74.5,776.00,456.5
2024-01-07,10:30:00,DRY,0.80,9.00,75.7,776.00,469.0
2024-01-07,10:35:00,DRY,0.65,9.25,73.0,776.00,483.0
2024-01-07,10:40:00,DRY,0.63,9.50,73.7,776.00,495.0
2024-01-07,10:45:00,DRY,0.90,9.50,72.5,776.00,508.5
2024-01-07,10:50:00,DRY,0.63,9.63,70.7,776.00,521.0
2024-01-07,10:55:00,DRY,0.60,9.90,68.0,776.00,534.5
2024-01-07,11:00:00,DRY,0.60,9.97,69.0,776.00,546.3
2024-01-07,11:05:00,DRY,0.85,9.90,70.0,776.00,558.5
2024-01-07,11:10:00,DRY,0.37,10.23,69.3,776.00,568.0
2024-01-07,11:15:00,DRY,0.80,10.30,68.5,776.00,579.0
2024-01-07,11:20:00,DRY,0.93,10.17,67.0,776.00,590.0
2024-01-07,11:25:00,DRY,1.05,9.95,69.0,776.00,599.5
2024-01-07,11:30:00,DRY,0.73,10.20,67.3,776.00,611.0
2024-01-07,11:35:00,DRY,0.90,10.65,67.0,776.00,620.0
2024-01-07,11:40:00,DRY,1.07,10.40,69.0,776.00,626.7
2024-01-07,11:45:00,DRY,1.40,10.20,70.5,776.00,635.5
2024-01-07,11:50:00,DRY,0.93,10.23,67.7,776.00,643.0
2024-01-07,11:55:00,DRY,1.25,10.30,65.0,776.00,651.5
2024-01-07,12:00:00,DRY,1.30,10.10,65.0,776.00,660.7
2024-01-07,12:05:00,DRY,0.95,9.90,66.5,776.00,666.5
2024-01-07,12:10:00,DRY,1.13,9.97,67.3,776.00,672.7
2024-01-07,12:15:00,DRY,1.20,10.05,69.0,776.00,679.0
2024-01-07,12:20:00,DRY,0.90,10.20,70.0,776.00,683.0
2024-01-07,12:25:00,DRY,0.65,10.30,68.0,776.00,686.0
2024-01-07,12:30:00,DRY,0.97,10.40,69.0,776.00,688.0
2024-01-07,12:35:00,DRY,1.25,10.45,69.0,776.00,691.5
2024-01-07,12:40:00,DRY,0.77,10.80,68.0,776.00,697.0
2024-01-07,12:45:00,DRY,1.50,11.60,62.0,775.50,700.0
2024-01-07,12:50:00,DRY,1.00,12.00,60.7,775.67,704.0
2024-01-07,12:55:00,DRY,2.05,12.05,60.5,775.00,705.0
2024-01-07,13:00:00,DRY,0.97,11.83,63.0,775.00,706.3
2024-01-07,13:05:00,DRY,0.60,11.10,65.5,775.00,702.0
2024-01-07,13:10:00,DRY,1.23,11.03,66.0,775.00,704.0
2024-01-07,13:15:00,DRY,0.70,10.80,65.5,775.00,703.0
2024-01-07,13:20:00,DRY,1.57,11.10,63.7,775.00,706.3
2024-01-07,13:25:00,DRY,1.90,11.60,63.5,775.00,557.0
2024-01-07,13:30:00,DRY,1.70,11.20,66.0,775.00,446.5
2024-01-07,13:35:00,DRY,1.50,11.60,64.0,775.00,716.0
2024-01-07,13:40:00,DRY,1.47,12.03,63.0,775.00,613.0
2024-01-07,13:45:00,DRY,1.75,12.20,62.5,775.00,278.0
2024-01-07,13:50:00,DRY,0.80,11.27,66.0,775.00,565.3
2024-01-07,13:55:00,DRY,0.85,10.75,68.5,775.00,368.0
2024-01-07,14:00:00,DRY,0.57,10.53,68.7,775.00,412.7
2024-01-07,14:05:00,DRY,0.80,10.55,69.0,775.00,416.5
2024-01-07,14:10:00,DRY,0.93,10.10,74.3,775.00,363.0
2024-01-07,14:15:00,DRY,0.50,10.10,75.5,775.00,695.5
2024-01-07,14:20:00,DRY,0.70,10.30,73.7,775.00,333.3
2024-01-07,14:25:00,DRY,1.25,9.75,77.0,775.00,563.0
2024-01-07,14:30:00,DRY,1.10,9.80,76.7,775.00,360.3
2024-01-07,14:35:00,DRY,0.60,9.40,77.0,775.00,119.0
2024-01-07,14:40:00,DRY,0.63,9.40,77.0,775.00,232.0
2024-01-07,14:45:00,DRY,0.70,9.50,77.0,774.50,230.5
2024-01-07,14:50:00,DRY,1.23,9.67,78.3,775.00,529.3
2024-01-07,14:55:00,DRY,0.80,9.60,78.0,775.00,129.5
2024-01-07,15:00:00,DRY,0.33,9.50,78.3,775.00,316.7
2024-01-07,15:05:00,DRY,0.65,10.15,76.0,775.00,468.5
2024-01-07,15:10:00,DRY,0.73,10.13,77.7,775.00,313.3
2024-01-07,15:15:00,DRY,1.10,9.65,80.0,775.00,454.0
2024-01-07,15:20:00,DRY,0.73,9.30,81.0,775.00,129.0
2024-01-07,15:25:00,DRY,0.50,9.15,80.0,775.00,252.5
2024-01-07,15:30:00,DRY,0.43,9.13,80.3,774.67,137.3
2024-01-07,15:35:00,DRY,0.90,9.35,79.5,775.00,371.0
2024-01-07,15:40:00,DRY,0.80,9.63,79.0,775.00,423.7
2024-01-07,15:45:00,DRY,0.65,9.65,74.0,775.00,141.0
2024-01-07,15:50:00,DRY,1.07,9.33,75.0,775.00,164.0
2024-01-07,15:55:00,DRY,1.05,9.25,76.0,775.00,227.5
2024-01-07,16:00:00,DRY,0.93,9.20,75.7,775.00,444.0
2024-01-07,16:05:00,DRY,0.80,9.55,73.5,775.00,434.5
2024-01-07,16:10:00,DRY,0.97,9.80,73.3,775.00,425.3
2024-01-07,16:15:00,DRY,1.15,9.75,74.0,775.00,306.0
2024-01-07,16:20:00,DRY,1.13,9.60,72.7,775.00,321.0
2024-01-07,16:25:00,DRY,0.85,9.30,75.0,775.00,368.5
2024-01-07,16:30:00,DRY,0.70,9.47,73.7,775.00,345.7
2024-01-07,16:35:00,DRY,0.65,9.75,66.0,775.00,332.5
2024-01-07,16:40:00,DRY,0.77,9.73,67.7,775.00,287.0
2024-01-07,16:45:00,DRY,0.50,9.65,65.5,775.00,327.0
2024-01-07,16:50:00,DRY,0.53,10.40,63.0,775.00,272.7
2024-01-07,16:55:00,DRY,0.40,11.10,66.0,775.00,287.0
2024-01-07,17:00:00,DRY,0.80,11.20,65.7,775.00,272.7
2024-01-07,17:05:00,DRY,0.35,11.15,65.5,775.00,242.5
2024-01-07,17:10:00,DRY,0.60,10.90,66.3,775.00,206.0
2024-01-07,17:15:00,DRY,0.40,10.70,67.5,775.00,203.5
2024-01-07,17:20:00,DRY,0.53,10.93,66.3,775.00,190.7
2024-01-07,17:25:00,DRY,1.30,10.40,68.5,775.00,169.0
2024-01-07,17:30:00,DRY,1.03,9.43,79.7,775.00,148.0
2024-01-07,17:35:00,DRY,1.10,9.10,87.5,775.00,126.5
2024-01-07,17:40:00,DRY,0.87,8.80,88.3,775.00,87.3
2024-01-07,17:45:00,DRY,1.05,8.70,90.5,775.00,91.0
2024-01-07,17:50:00,DRY,1.13,8.43,83.3,775.00,62.0
2024-01-07,17:55:00,DRY,0.85,8.25,86.0,775.00,56.0
2024-01-07,18:00:00,DRY,0.67,8.20,88.3,775.00,40.0
2024-01-07,18:05:00,DRY,0.75,8.20,91.5,775.00,26.0
2024-01-07,18:10:00,DRY,0.90,8.27,90.3,775.00,10.0
2024-01-07,18:15:00,DRY,0.75,8.05,90.0,775.00,4.5
2024-01-07,18:20:00,DRY,0.60,7.90,89.7,775.00,1.7
2024-01-07,18:25:00,DRY,0.65,7.80,82.0,775.00,0.0
2024-01-07,18:30:00,DRY,0.53,7.73,78.3,775.00,0.0
2024-01-07,18:35:00,DRY,0.60,7.60,75.5,775.00,0.0
2024-01-07,18:40:00,DRY,0.77,7.70,74.7,775.00,0.0
2024-01-07,18:45:00,DRY,0.90,7.65,74.0,775.00,0.0
2024-01-07,18:50:00,DRY,1.10,7.57,76.7,775.00,0.0
2024-01-07,18:55:00,DRY,1.10,7.45,77.0,775.00,0.0
2024-01-07,19:00:00,DRY,1.17,7.20,78.3,775.00,0.0
2024-01-07,19:05:00,DRY,1.70,7.00,79.5,775.00,0.0
2024-01-07,19:10:00,DRY,1.37,6.93,79.0,775.00,0.0
2024-01-07,19:15:00,DRY,1.80,6.85,79.0,775.00,0.0
2024-01-07,19:20:00,DRY,1.77,6.83,79.3,775.00,0.0
2024-01-07,19:25:00,DRY,1.25,6.70,80.0,775.00,0.0
2024-01-07,19:30:00,DRY,1.57,6.70,81.0,775.00,0.0
2024-01-07,19:35:00,DRY,2.10,6.75,80.5,775.00,0.0
2024-01-07,19:40:00,DRY,2.17,6.97,73.7,775.00,0.0
2024-01-07,19:45:00,DRY,2.70,6.90,75.0,775.00,0.0
2024-01-07,19:50:00,DRY,2.43,6.97,70.7,775.00,0.0
2024-01-07,19:55:00,DRY,2.00,6.95,69.0,775.00,0.0
2024-01-07,20:00:00,DRY,1.73,6.97,65.7,775.00,0.0
2024-01-07,20:05:00,DRY,1.65,6.90,67.0,775.00,0.0
2024-01-07,20:10:00,DRY,1.73,7.03,67.3,775.00,0.0
2024-01-07,20:15:00,DRY,1.30,7.20,69.5,775.00,0.0
2024-01-07,20:20:00,DRY,1.03,7.33,72.3,775.00,0.0
2024-01-07,20:25:00,DRY,1.75,7.35,64.0,775.00,0.0
2024-01-07,20:30:00,DRY,1.90,7.40,64.0,775.00,0.0
2024-01-07,20:35:00,DRY,0.85,7.35,67.5,775.00,0.0
2024-01-07,20:40:00,DRY,1.30,7.33,68.3,775.00,0.0
2024-01-07,20:45:00,DRY,1.60,7.35,68.5,775.00,0.0
2024-01-07,20:50:00,DRY,2.27,7.20,67.0,775.00,0.0
2024-01-07,20:55:00,DRY,2.00,7.15,65.5,775.00,0.0
2024-01-07,21:00:00,DRY,2.23,7.07,66.0,775.00,0.0
2024-01-07,21:05:00,DRY,2.10,7.10,66.5,775.00,0.0
2024-01-07,21:10:00,DRY,2.00,7.13,64.0,775.00,0.0
2024-01-07,21:15:00,DRY,0.60,7.20,61.5,775.00,0.0
2024-01-07,21:20:00,DRY,1.13,7.13,63.3,775.33,0.0
2024-01-07,21:25:00,DRY,1.65,7.15,64.5,776.00,0.0
2024-01-07,21:30:00,DRY,1.53,7.17,64.0,776.00,0.0
2024-01-07,21:35:00,DRY,2.15,7.10,49.5,775.00,0.0
2024-01-07,21:40:00,DRY,2.07,7.23,62.3,775.33,0.0
2024-01-07,21:45:00,DRY,2.60,7.10,55.5,775.00,0.0
2024-01-07,21:50:00,DRY,2.67,7.23,48.0,776.00,0.0
2024-01-07,21:55:00,DRY,2.60,7.30,42.5,776.00,0.0
2024-01-07,22:00:00,DRY,2.73,7.37,40.7,776.00,0.0
2024-01-07,22:05:00,DRY,2.90,7.40,42.5,776.00,0.0
2024-01-07,22:10:00,DRY,2.70,7.30,42.0,775.67,0.0
2024-01-07,22:15:00,DRY,2.05,7.40,40.0,776.00,0.0
2024-01-07,22:20:00,DRY,1.33,7.60,38.3,776.00,0.0
2024-01-07,22:25:00,DRY,0.55,7.60,36.5,776.00,0.0
2024-01-07,22:30:00,DRY,1.60,7.50,34.0,776.00,0.0
2024-01-07,22:35:00,DRY,0.80,7.50,34.5,776.00,0.0
2024-01-07,22:40:00,DRY,1.40,7.53,34.3,776.00,0.0
2024-01-07,22:45:00,DRY,0.75,7.60,33.5,776.00,0.0
2024-01-07,22:50:00,DRY,0.27,7.43,35.7,776.00,0.0
2024-01-07,22:55:00,DRY,0.60,7.50,36.0,776.00,0.0
2024-01-07,23:00:00,DRY,0.53,7.50,35.3,776.00,0.0
2024-01-07,23:05:00,DRY,0.30,7.40,37.0,776.00,0.0
2024-01-07,23:10:00,DRY,0.30,7.20,42.3,776.00,0.0
2024-01-07,23:15:00,DRY,0.15,7.10,44.0,776.00,0.0
2024-01-07,23:20:00,DRY,0.50,7.00,38.7,776.00,0.0
2024-01-07,23:25:00,DRY,0.80,7.15,39.5,776.00,0.0
2024-01-07,23:30:00,DRY,0.87,7.17,43.3,775.67,0.0
2024-01-07,23:35:00,DRY,1.30,7.05,46.5,776.00,0.0
2024-01-07,23:40:00,DRY,2.07,7.23,52.0,775.33,0.0
2024-01-07,23:45:00,DRY,2.05,7.35,54.0,775.50,0.0
2024-01-07,23:50:00,DRY,2.13,7.23,57.0,775.00,0.0
2024-01-07,23:55:00,DRY,2.45,7.20,58.0,775.00,0.0
2024-01-08,00:00:00,DRY,2.10,7.23,59.7,775.00,0.0
2024-01-08,00:05:00,DRY,2.70,7.30,60.5,775.00,0.0
2024-01-08,00:10:00,DRY,2.90,7.23,60.0,775.00,0.0
2024-01-08,00:15:00,DRY,3.10,7.35,60.0,775.00,0.0
2024-01-08,00:20:00,DRY,2.70,7.27,60.0,775.00,0.0
2024-01-08,00:25:00,DRY,2.20,7.10,58.5,775.00,0.0
2024-01-08,00:30:00,DRY,2.53,7.27,57.3,775.00,0.0
2024-01-08,00:35:00,DRY,2.25,7.25,56.0,775.00,0.0
2024-01-08,00:40:00,DRY,2.10,7.40,57.3,775.00,0.0
2024-01-08,00:45:00,DRY,2.45,7.45,57.0,775.00,0.0
2024-01-08,00:50:00,DRY,2.67,7.50,56.0,775.00,0.0
2024-01-08,00:55:00,DRY,2.25,7.40,58.5,775.00,0.0
2024-01-08,01:00:00,DRY,2.40,7.27,60.0,775.00,0.0
2024-01-08,01:05:00,DRY,2.45,7.35,60.0,775.00,0.0
2024-01-08,01:10:00,DRY,2.17,7.23,59.7,775.00,0.0
2024-01-08,01:15:00,DRY,2.00,7.30,59.0,775.00,0.0
2024-01-08,01:20:00,DRY,2.27,7.23,61.0,775.00,0.0
2024-01-08,01:25:00,DRY,2.45,7.20,61.5,775.00,0.0
2024-01-08,01:30:00,DRY,2.60,7.17,61.3,775.00,0.0
2024-01-08,01:35:00,DRY,2.15,7.15,62.0,775.00,0.0
2024-01-08,01:40:00,DRY,2.33,7.00,64.0,775.00,0.0
2024-01-08,01:45:00,DRY,2.10,6.85,64.0,775.00,0.0
2024-01-08,01:50:00,DRY,1.60,6.97,64.3,775.00,0.0
2024-01-08,01:55:00,DRY,1.55,7.10,63.0,775.00,0.0
2024-01-08,02:00:00,DRY,1.00,7.27,62.3,775.00,0.0
2024-01-08,02:05:00,DRY,0.45,7.20,60.5,775.00,0.0
2024-01-08,02:10:00,DRY,0.43,6.90,54.7,775.00,0.0
2024-01-08,02:15:00,DRY,0.40,6.80,53.5,775.00,0.0
2024-01-08,02:20:00,DRY,0.67,6.80,53.3,775.00,0.0
2024-01-08,02:25:00,DRY,1.65,7.10,54.0,775.00,0.0
2024-01-08,02:30:00,DRY,1.77,7.47,53.7,775.00,0.0
2024-01-08,02:35:00,DRY,2.00,7.45,55.5,775.00,0.0
2024-01-08,02:40:00,DRY,2.27,7.30,58.3,774.33,0.0
2024-01-08,02:45:00,DRY,1.95,7.30,59.0,774.00,0.0
2024-01-08,02:50:00,DRY,2.30,7.30,60.0,774.00,0.0
2024-01-08,02:55:00,DRY,2.45,7.15,61.5,774.00,0.0
2024-01-08,03:00:00,DRY,2.13,7.23,62.7,774.00,0.0
2024-01-08,03:05:00,DRY,1.45,7.35,63.0,774.00,0.0
2024-01-08,03:10:00,DRY,1.57,7.37,63.0,774.00,0.0
2024-01-08,03:15:00,DRY,1.60,7.30,64.0,774.00,0.0
2024-01-08,03:20:00,DRY,2.40,7.27,64.7,774.00,0.0
2024-01-08,03:25:00,DRY,1.70,7.20,65.5,774.00,0.0
2024-01-08,03:30:00,DRY,2.07,7.23,66.0,774.00,0.0
2024-01-08,03:35:00,DRY,2.40,7.15,67.0,774.00,0.0
2024-01-08,03:40:00,DRY,1.67,7.20,66.3,774.00,0.0
2024-01-08,03:45:00,DRY,2.30,7.20,67.0,774.00,0.0
2024-01-08,03:50:00,DRY,2.20,7.33,65.7,774.00,0.0
2024-01-08,03:55:00,DRY,2.15,7.40,64.0,774.00,0.0
2024-01-08,04:00:00,DRY,1.87,7.50,63.3,774.00,0.0
2024-01-08,04:05:00,DRY,3.55,7.40,65.0,774.00,0.0
2024-01-08,04:10:00,DRY,2.70,7.23,65.3,774.00,0.0
2024-01-08,04:15:00,DRY,2.55,7.10,66.0,774.00,0.0
2024-01-08,04:20:00,DRY,2.40,7.17,64.7,774.00,0.0
2024-01-08,04:25:00,DRY,2.80,7.20,64.0,774.00,0.0
2024-01-08,04:30:00,DRY,3.20,7.13,64.7,774.00,0.0
2024-01-08,04:35:00,DRY,1.90,7.10,65.0,774.00,0.0
2024-01-08,04:40:00,DRY,2.00,6.97,66.3,774.00,0.0
2024-01-08,04:45:00,DRY,2.30,7.00,66.0,774.00,0.0
2024-01-08,04:50:00,DRY,1.27,7.00,66.0,774.00,0.0
2024-01-08,04:55:00,DRY,1.75,6.95,67.0,774.00,0.0
2024-01-08,05:00:00,DRY,1.13,6.93,66.0,774.00,0.0
2024-01-08,05:05:00,DRY,0.90,7.00,64.5,774.00,0.0
2024-01-08,05:10:00,DRY,1.30,7.00,63.0,774.00,0.0
2024-01-08,05:15:00,DRY,2.35,6.90,64.0,774.00,0.0
2024-01-08,05:20:00,DRY,2.37,6.97,64.3,774.00,0.0
2024-01-08,05:25:00,DRY,3.20,6.85,65.0,774.00,0.0
2024-01-08,05:30:00,DRY,3.17,6.80,65.0,774.00,0.0
2024-01-08,05:35:00,DRY,3.15,6.85,64.0,774.00,0.0
2024-01-08,05:40:00,DRY,3.10,7.00,61.0,774.00,0.0
2024-01-08,05:45:00,DRY,3.25,6.85,60.0,774.00,0.0
2024-01-08,05:50:00,DRY,2.83,7.00,60.3,774.00,0.0
2024-01-08,05:55:00,DRY,2.25,6.85,63.5,774.00,0.0
2024-01-08,06:00:00,DRY,2.63,6.83,60.3,774.00,0.0
2024-01-08,06:05:00,DRY,2.95,7.00,59.0,774.00,0.0
2024-01-08,06:10:00,DRY,2.40,6.87,63.0,774.00,0.0
2024-01-08,06:15:00,DRY,3.15,6.80,61.5,774.00,0.0
2024-01-08,06:20:00,DRY,2.53,6.83,56.7,774.00,0.0
2024-01-08,06:25:00,DRY,1.90,7.00,52.5,774.00,0.0
2024-01-08,06:30:00,DRY,1.93,6.90,53.3,774.00,0.0
2024-01-08,06:35:00,DRY,2.35,6.90,53.5,774.00,0.0
2024-01-08,06:40:00,DRY,2.40,6.93,52.3,774.00,0.0
2024-01-08,06:45:00,DRY,2.45,7.00,52.0,774.00,0.0
2024-01-08,06:50:00,DRY,1.77,6.93,53.7,774.00,0.0
2024-01-08,06:55:00,DRY,2.35,6.85,54.0,774.00,0.0
2024-01-08,07:00:00,DRY,3.10,6.80,54.3,774.00,0.0
2024-01-08,07:05:00,DRY,2.05,6.85,54.0,774.00,0.0
2024-01-08,07:10:00,DRY,2.33,6.90,53.7,774.00,0.0
2024-01-08,07:15:00,DRY,2.90,6.95,54.0,774.00,0.0
2024-01-08,07:20:00,DRY,3.03,6.87,54.7,774.00,0.0
2024-01-08,07:25:00,DRY,2.10,6.85,56.0,774.00,0.0
2024-01-08,07:30:00,DRY,2.97,6.80,56.7,774.00,0.0
2024-01-08,07:35:00,DRY,2.90,6.70,57.0,774.00,0.0
2024-01-08,07:40:00,DRY,2.70,6.67,57.0,774.00,0.0
2024-01-08,07:45:00,DRY,2.65,6.60,57.0,774.00,0.0
2024-01-08,07:50:00,DRY,2.23,6.70,57.0,774.00,0.0
2024-01-08,07:55:00,DRY,2.25,6.70,57.0,774.00,0.0
2024-01-08,08:00:00,DRY,1.80,6.63,57.7,774.00,0.0
2024-01-08,08:05:00,DRY,2.45,6.50,58.5,774.00,0.0
2024-01-08,08:10:00,DRY,2.97,6.40,59.0,774.00,0.7
2024-01-08,08:15:00,DRY,2.75,6.40,59.5,774.50,6.5
2024-01-08,08:20:00,DRY,2.20,6.50,59.3,774.33,13.7
2024-01-08,08:25:00,DRY,2.30,6.60,59.0,774.50,19.5
2024-01-08,08:30:00,DRY,2.20,6.67,59.0,775.00,28.0
2024-01-08,08:35:00,DRY,2.40,6.60,60.0,775.00,38.5
2024-01-08,08:40:00,DRY,2.33,6.70,60.0,775.00,52.3
2024-01-08,08:45:00,DRY,2.25,6.75,60.5,775.00,63.5
2024-01-08,08:50:00,DRY,2.40,6.80,61.0,775.00,126.5
2024-01-08,08:55:00,DRY,2.55,6.90,60.0,775.00,170.5
2024-01-08,09:00:00,DRY,2.33,7.07,60.0,775.00,211.7
2024-01-08,09:05:00,DRY,2.30,7.25,59.0,775.00,246.5
2024-01-08,09:10:00,DRY,1.90,7.43,59.0,775.00,231.0
2024-01-08,09:15:00,DRY,1.95,7.60,59.0,775.00,201.5
2024-01-08,09:20:00,DRY,2.33,7.57,60.0,775.00,134.3
2024-01-08,09:25:00,DRY,1.95,7.50,61.0,775.00,130.5
2024-01-08,09:30:00,DRY,3.17,7.37,62.3,775.00,166.7
2024-01-08,09:35:00,DRY,2.55,7.30,64.0,775.00,142.5
2024-01-08,09:40:00,DRY,2.37,7.20,64.3,775.00,135.7
2024-01-08,09:45:00,DRY,2.35,7.25,65.5,775.00,276.0
2024-01-08,09:50:00,DRY,1.93,7.60,65.0,775.00,284.0
2024-01-08,09:55:00,DRY,2.00,7.70,66.0,775.00,364.0
2024-01-08,10:00:00,DRY,2.20,7.83,65.3,775.00,388.0
2024-01-08,10:05:00,DRY,1.30,8.05,64.0,775.00,404.0
2024-01-08,10:10:00,DRY,1.60,8.20,62.7,775.00,342.7
2024-01-08,10:15:00,DRY,1.80,8.20,63.5,775.00,389.5
2024-01-08,10:20:00,DRY,1.93,8.40,63.3,775.00,424.3
2024-01-08,10:25:00,DRY,2.55,8.65,62.5,775.00,508.5
2024-01-08,10:30:00,DRY,2.70,8.83,61.7,775.00,538.0
2024-01-08,10:35:00,DRY,1.75,8.90,63.0,775.00,478.0
2024-01-08,10:40:00,DRY,2.53,8.87,60.0,775.00,317.7
2024-01-08,10:45:00,DRY,1.70,8.65,60.0,775.00,377.0
2024-01-08,10:50:00,DRY,1.73,8.67,62.3,775.00,384.0
2024-01-08,10:55:00,DRY,1.55,8.75,63.0,775.00,224.0
2024-01-08,11:00:00,DRY,1.37,8.53,63.7,775.00,237.3
2024-01-08,11:05:00,DRY,1.95,8.35,68.0,775.00,248.0
2024-01-08,11:10:00,DRY,1.47,8.20,69.3,775.00,232.7
2024-01-08,11:15:00,DRY,1.95,8.25,69.0,775.00,237.0
2024-01-08,11:20:00,DRY,2.33,8.20,68.0,775.00,282.3
2024-01-08,11:25:00,DRY,1.45,8.20,67.0,775.00,263.0
2024-01-08,11:30:00,DRY,1.73,8.40,68.0,775.00,331.0
2024-01-08,11:35:00,DRY,1.50,8.65,65.5,775.00,489.5
2024-01-08,11:40:00,DRY,1.30,9.13,63.0,775.00,617.3
2024-01-08,11:45:00,DRY,1.50,9.70,63.0,775.00,486.5
2024-01-08,11:50:00,DRY,1.83,9.60,60.0,775.00,374.0
2024-01-08,11:55:00,DRY,0.55,9.35,60.0,775.00,313.0
2024-01-08,12:00:00,DRY,1.50,9.17,62.0,775.00,389.3
2024-01-08,12:05:00,DRY,1.45,9.25,63.5,775.00,439.0
2024-01-08,12:10:00,DRY,1.47,9.43,60.7,775.00,433.7
2024-01-08,12:15:00,DRY,2.00,9.50,61.5,775.00,502.0
2024-01-08,12:20:00,DRY,1.67,9.67,61.0,775.00,483.3
2024-01-08,12:25:00,DRY,1.50,9.60,61.0,775.00,343.0
2024-01-08,12:30:00,DRY,1.27,9.53,64.0,774.67,452.0
2024-01-08,12:35:00,DRY,2.10,9.45,66.0,774.00,461.0
2024-01-08,12:40:00,DRY,2.30,9.47,67.3,774.00,590.3
2024-01-08,12:45:00,DRY,1.00,9.85,66.0,774.00,667.5
2024-01-08,12:50:00,DRY,1.20,10.07,64.0,774.00,641.3
2024-01-08,12:55:00,DRY,1.15,10.30,63.0,774.00,744.5
2024-01-08,13:00:00,DRY,2.27,10.53,60.0,774.00,734.3
2024-01-08,13:05:00,DRY,0.90,10.80,62.0,774.00,640.0
2024-01-08,13:10:00,DRY,1.90,10.80,62.7,774.00,728.3
2024-01-08,13:15:00,DRY,1.90,10.25,66.5,774.00,676.0
2024-01-08,13:20:00,DRY,2.20,10.47,66.7,774.00,616.7
2024-01-08,13:25:00,DRY,1.80,10.15,68.0,774.00,608.5
2024-01-08,13:30:00,DRY,2.10,9.95,71.5,774.00,301.5
2024-01-08,13:35:00,DRY,0.70,9.50,71.0,774.00,303.0
2024-01-08,13:40:00,DRY,1.57,9.47,68.7,774.00,327.7
2024-01-08,13:45:00,DRY,0.85,9.50,69.0,773.50,335.0
2024-01-08,13:50:00,DRY,1.13,9.50,70.7,773.00,388.7
2024-01-08,13:55:00,DRY,0.95,9.45,68.5,773.00,559.0
2024-01-08,14:00:00,DRY,1.27,10.13,69.3,773.00,476.3
2024-01-08,14:05:00,DRY,1.40,9.85,70.0,773.00,291.0
2024-01-08,14:10:00,DRY,0.87,9.40,71.0,773.00,318.3
2024-01-08,14:15:00,DRY,0.65,9.20,73.0,773.00,400.0
2024-01-08,14:20:00,DRY,1.17,9.50,75.3,773.00,759.0
2024-01-08,14:25:00,DRY,1.05,9.70,74.0,773.00,423.5
2024-01-08,14:30:00,DRY,1.00,9.27,79.3,773.00,339.7
2024-01-08,14:35:00,DRY,0.65,9.00,81.0,773.00,296.0
2024-01-08,14:40:00,DRY,0.73,8.93,88.3,773.00,337.0
2024-01-08,14:45:00,DRY,1.00,8.95,89.5,773.00,293.5
2024-01-08,14:50:00,DRY,0.97,8.87,90.7,773.00,277.3
2024-01-08,14:55:00,DRY,0.80,8.80,90.0,773.00,299.0
2024-01-08,15:00:00,DRY,0.73,9.07,85.0,773.00,365.0
2024-01-08,15:05:00,DRY,1.25,9.35,75.5,773.00,343.5
2024-01-08,15:10:00,DRY,1.07,9.67,73.0,773.00,740.7
2024-01-08,15:15:00,DRY,0.35,10.25,74.0,773.00,583.0
2024-01-08,15:20:00,DRY,0.57,10.50,63.0,773.00,542.0
2024-01-08,15:25:00,DRY,1.00,10.45,63.0,773.00,636.5
2024-01-08,15:30:00,DRY,1.10,9.90,82.0,773.00,375.7
2024-01-08,15:35:00,DRY,1.30,9.20,84.5,773.00,176.0
2024-01-08,15:40:00,DRY,0.97,8.60,92.0,773.00,155.0
2024-01-08,15:45:00,DRY,0.80,8.50,92.0,773.00,179.0
2024-01-08,15:50:00,DRY,1.07,8.67,74.3,773.00,189.3
2024-01-08,15:55:00,DRY,0.60,9.15,67.0,773.00,189.0
2024-01-08,16:00:00,DRY,0.97,9.43,69.3,773.00,195.3
2024-01-08,16:05:00,DRY,0.75,9.35,71.0,773.00,196.5
2024-01-08,16:10:00,DRY,1.10,9.40,58.3,773.00,175.0
2024-01-08,16:15:00,DRY,1.15,9.35,60.5,773.00,160.0
2024-01-08,16:20:00,DRY,0.70,9.23,62.3,773.00,147.3
2024-01-08,16:25:00,DRY,0.75,9.20,59.5,773.00,152.0
2024-01-08,16:30:00,DRY,0.73,8.93,74.0,773.00,189.0
2024-01-08,16:35:00,DRY,0.80,8.75,67.0,773.00,246.0
2024-01-08,16:40:00,DRY,0.97,8.87,73.0,773.00,262.3
2024-01-08,16:45:00,DRY,0.90,8.80,66.5,773.00,252.5
2024-01-08,16:50:00,DRY,0.70,9.03,75.3,773.00,321.7
2024-01-08,16:55:00,DRY,0.70,9.25,59.5,773.00,330.5
2024-01-08,17:00:00,DRY,0.60,9.77,49.3,773.00,245.3
2024-01-08,17:05:00,DRY,0.60,10.15,43.5,773.00,205.0
2024-01-08,17:10:00,DRY,0.67,10.03,44.0,773.00,174.3
2024-01-08,17:15:00,DRY,0.70,9.75,47.5,773.00,233.5
2024-01-08,17:20:00,DRY,0.57,9.53,51.7,773.00,124.7
2024-01-08,17:25:00,DRY,0.75,9.15,64.0,773.00,110.0
2024-01-08,17:30:00,DRY,1.23,8.57,77.0,773.00,116.3
2024-01-08,17:35:00,DRY,1.05,8.20,81.5,773.00,80.5
2024-01-08,17:40:00,DRY,0.90,8.07,79.7,773.00,92.7
2024-01-08,17:45:00,DRY,1.00,7.95,70.0,773.00,111.5
2024-01-08,17:50:00,DRY,1.43,8.37,56.7,773.00,92.3
2024-01-08,17:55:00,DRY,1.30,8.50,60.5,773.00,60.0
2024-01-08,18:00:00,DRY,1.00,8.00,69.7,773.00,45.7
2024-01-08,18:05:00,DRY,1.70,7.85,65.0,773.00,37.0
2024-01-08,18:10:00,DRY,2.17,7.83,62.0,773.00,30.0
2024-01-08,18:15:00,DRY,0.95,7.90,60.0,773.00,20.0
2024-01-08,18:20:00,DRY,1.53,7.67,65.3,773.00,6.7
2024-01-08,18:25:00,DRY,1.20,7.60,61.5,773.00,2.5
2024-01-08,18:30:00,DRY,1.00,7.63,66.0,773.00,2.0
2024-01-08,18:35:00,DRY,1.30,7.55,86.0,773.00,0.5
2024-01-08,18:40:00,DRY,0.70,7.17,92.0,773.00,0.0
2024-01-08,18:45:00,DRY,1.10,6.85,78.5,773.50,0.0
2024-01-08,18:50:00,DRY,0.75,6.95,67.0,773.00,0.0
2024-01-08,18:55:00,DRY,1.65,7.05,61.5,773.50,0.0
2024-01-08,19:00:00,DRY,1.47,7.27,56.7,773.00,0.0
2024-01-08,19:05:00,DRY,1.70,7.25,57.5,773.50,0.0
2024-01-08,19:10:00,DRY,1.20,7.20,54.3,773.00,0.0
2024-01-08,19:15:00,DRY,2.35,7.35,53.5,773.50,0.0
2024-01-08,19:20:00,DRY,1.30,7.30,53.7,773.00,0.0
2024-01-08,19:25:00,DRY,1.50,7.25,54.0,773.00,0.0
2024-01-08,19:30:00,DRY,2.30,7.10,55.0,773.00,0.0
2024-01-08,19:35:00,DRY,2.10,7.10,53.5,773.00,0.0
2024-01-08,19:40:00,DRY,1.97,7.40,53.3,773.00,0.0
2024-01-08,19:45:00,DRY,2.50,7.25,53.0,773.50,0.0
2024-01-08,19:50:00,DRY,1.57,7.10,54.7,773.67,0.0
2024-01-08,19:55:00,DRY,2.15,6.80,58.0,773.00,0.0
2024-01-08,20:00:00,DRY,3.57,6.83,53.3,773.00,0.0
2024-01-08,20:05:00,DRY,3.40,6.95,54.0,773.00,0.0
2024-01-08,20:10:00,DRY,2.10,7.03,53.0,774.00,0.0
2024-01-08,20:15:00,DRY,3.35,6.65,55.0,774.00,0.0
2024-01-08,20:20:00,DRY,1.67,6.70,55.0,774.00,0.0
2024-01-08,20:25:00,DRY,3.10,6.30,57.5,773.50,0.0
2024-01-08,20:30:00,DRY,2.47,6.33,57.7,774.00,0.0
2024-01-08,20:35:00,DRY,2.40,5.95,63.0,774.00,0.0
2024-01-08,20:40:00,DRY,2.67,5.93,61.7,774.00,0.0
2024-01-08,20:45:00,DRY,2.85,5.95,63.0,774.00,0.0
2024-01-08,20:50:00,DRY,1.97,5.90,63.0,774.00,0.0
2024-01-08,20:55:00,DRY,1.35,5.70,66.5,774.00,0.0
2024-01-08,21:00:00,DRY,3.53,5.73,66.3,774.00,0.0
2024-01-08,21:05:00,DRY,2.90,5.75,69.0,774.00,0.0
2024-01-08,21:10:00,DRY,2.43,5.73,65.3,774.00,0.0
2024-01-08,21:15:00,DRY,2.90,5.85,62.5,774.00,0.0
2024-01-08,21:20:00,DRY,1.80,6.30,58.0,774.00,0.0
2024-01-08,21:25:00,DRY,1.75,6.60,57.0,774.00,0.0